Wind_Speed
9 8 8 6 3 8 17 21 4 3 3 4 2 2 6 2 7 4 5 15 10 14 11 15 16 13 9 6 6 5 3 2 0 2 2 3 3 4 5 8 8 7 6 5 4 3 2 2 2
9 9 5 3 10 14 17 3 6 4 5 8 9 4 1 5 8 11 15 16 12 19 13 17 17 15 12 9 8 6 6 4 3 1 1 3 3 4 5 7 6 5 5 4 3 2 2 1 0
8 7 2 6 13 16 18 3 3 6 7 7 2 2 4 8 8 20 23 17 13 19 11 17 17 17 13 10 9 8 8 7 6 2 2 3 4 4 4 7 6 5 6 6 4 3 2 1 0
9 6 5 10 15 17 17 8 6 3 4 10 6 2 7 13 20 21 16 12 14 19 11 17 18 18 15 12 10 9 9 9 8 5 3 4 5 6 5 7 5 4 4 4 4 2 1 0 1
8 5 12 17 17 16 17 13 11 10 9 9 10 5 3 9 17 19 20 14 14 18 14 18 19 20 17 14 11 11 11 10 10 9 6 6 7 7 5 8 6 4 3 2 2 1 1 0 1
8 7 13 16 16 15 15 15 10 10 10 9 11 11 9 15 21 20 20 17 16 16 17 20 22 22 19 16 14 13 12 11 12 11 9 8 9 9 8 8 8 6 4 3 2 2 2 2 2
8 10 18 18 18 19 15 9 11 10 9 8 9 9 6 9 11 19 17 20 15 18 18 19 23 23 21 18 16 16 15 14 13 13 11 10 12 12 11 11 10 9 7 5 4 3 4 4 3
9 13 18 17 18 18 16 15 11 8 11 15 9 6 6 19 17 13 15 18 20 17 20 20 24 25 23 20 19 18 18 16 15 15 14 14 15 15 14 13 12 10 9 7 6 5 5 5 4
12 13 16 14 15 13 8 3 9 10 14 13 13 13 19 27 25 19 18 6 16 23 21 24 25 26 25 23 21 21 21 20 18 17 17 17 18 18 17 16 15 13 12 10 8 7 6 6 5
10 11 14 13 16 17 15 13 13 17 17 17 17 15 16 20 18 18 20 20 17 12 26 27 27 29 29 27 25 24 24 24 21 20 20 20 20 19 18 18 17 15 14 12 10 8 7 6 6
15 20 16 17 19 19 19 25 24 21 20 18 20 22 23 26 27 25 23 22 24 22 9 26 31 33 33 32 29 29 28 26 24 22 22 21 21 20 20 20 19 16 14 12 11 9 8 8 8
19 18 18 18 19 22 20 21 26 26 27 23 22 24 27 27 26 23 23 22 22 21 19 12 30 34 36 36 36 32 31 30 28 25 24 23 22 21 20 20 19 17 15 14 12 11 9 9 9
19 18 20 19 25 23 22 21 23 24 22 18 18 18 19 19 16 19 21 22 25 29 29 26 14 33 35 38 38 38 35 32 31 28 27 25 24 23 21 20 22 19 16 15 14 12 10 9 9
16 22 24 25 24 19 17 18 18 17 14 17 17 16 15 14 13 16 19 24 27 26 31 34 29 24 38 39 40 41 41 36 33 31 30 28 27 24 24 22 23 21 19 17 15 13 12 10 9
19 25 25 22 20 15 15 17 11 11 8 12 17 20 20 19 19 19 22 23 25 28 28 29 38 32 35 42 43 42 45 43 38 34 33 31 30 26 26 26 25 23 21 19 16 14 11 10 7
21 17 16 5 8 11 11 16 7 9 14 21 22 21 21 16 16 20 21 20 15 22 30 31 33 39 36 44 45 44 47 48 45 40 36 33 33 32 28 29 27 26 23 22 19 16 14 12 10
14 11 10 11 9 11 11 11 14 17 19 19 18 16 17 19 22 23 25 26 24 22 20 33 34 41 40 50 47 47 44 50 49 45 42 38 36 36 32 30 30 29 27 25 22 19 16 14 14
11 11 16 17 17 18 20 19 15 15 15 11 14 18 17 17 19 25 32 36 37 37 33 33 37 41 47 40 52 48 47 49 53 51 46 42 37 39 38 32 32 31 30 26 25 22 20 17 16
10 17 18 17 16 18 17 18 17 12 11 17 18 15 20 26 36 40 44 36 34 37 41 47 41 34 45 49 48 49 50 53 53 58 51 45 42 39 40 36 34 34 31 26 25 24 23 19 21
11 14 17 16 13 16 20 20 13 11 13 13 18 22 29 31 38 50 44 34 32 36 38 43 45 45 40 47 48 49 49 52 54 56 55 50 48 44 42 40 40 36 33 30 28 27 25 24 24
12 14 16 17 17 18 21 16 9 3 6 12 18 24 32 42 55 50 40 35 34 36 37 42 45 45 45 45 51 47 51 48 50 54 60 56 52 47 45 43 44 37 34 33 31 29 28 26 27
13 9 9 14 15 18 13 9 15 6 10 18 26 31 38 51 48 44 41 37 31 29 31 30 41 44 47 40 47 58 54 49 53 53 61 63 54 51 48 48 46 40 37 37 35 31 30 30 30
9 10 13 16 18 19 20 16 3 8 14 22 27 35 44 44 44 43 41 39 31 27 26 29 35 35 42 46 44 55 56 60 48 53 59 63 57 56 51 50 47 44 41 40 39 34 33 32 34
10 13 16 18 18 13 19 16 12 14 18 24 30 35 39 40 42 41 37 34 29 31 30 30 30 38 41 46 44 46 67 62 50 51 59 59 61 58 53 50 47 46 45 43 39 36 35 35 35
6 11 10 4 8 9 8 9 6 10 15 22 29 33 36 39 40 40 40 39 36 36 26 23 26 36 44 46 45 48 64 63 65 58 62 62 63 61 57 53 51 49 48 44 41 39 37 35 32
5 6 7 5 6 13 25 5 6 6 14 22 26 30 32 36 37 41 41 40 39 39 36 27 27 30 39 45 49 50 52 67 70 64 55 57 66 64 59 55 52 50 50 46 43 42 33 33 30
1 6 6 10 17 17 11 9 5 6 15 20 25 28 30 34 36 38 37 37 39 39 35 28 30 30 32 36 44 45 51 64 62 73 60 51 65 64 60 56 51 50 48 42 36 38 39 30 29
9 5 5 7 4 8 1 8 4 16 20 22 25 28 29 32 33 33 35 35 34 37 33 26 29 33 26 31 34 41 45 41 47 69 54 55 70 57 61 55 51 50 41 45 30 30 31 31 30
10 9 5 10 11 6 7 4 9 16 20 22 24 27 27 29 31 33 33 33 31 31 29 24 22 21 17 28 28 31 32 35 49 61 63 39 62 56 56 58 51 39 39 54 31 30 28 29 33
6 4 2 4 9 12 8 3 7 14 18 20 22 24 24 26 28 30 31 31 30 30 27 20 12 7 3 13 21 29 25 29 50 45 53 90 33 48 55 57 61 46 26 32 27 26 30 36 37
Wind_Direction
302 308 308 341 292 261 264 257 216 344 339 228 320 267 236 262 340 60 292 280 248 260 268 229 229 237 247 266 296 300 303 290 71 87 108 83 90 86 82 122 119 119 119 117 121 117 114 114 119
294 302 333 118 253 270 278 113 75 123 162 210 358 20 351 91 227 197 228 242 227 256 274 221 212 227 236 250 277 290 290 279 272 142 134 128 123 112 90 124 118 109 125 132 127 125 118 141 15
279 287 320 249 252 257 282 7 48 30 308 299 78 326 298 251 265 236 244 257 239 254 268 209 202 217 229 243 265 277 284 285 276 251 193 167 152 139 114 136 128 105 115 114 110 115 118 132 149
270 306 271 243 255 264 274 305 263 315 329 341 267 295 312 268 267 248 261 258 242 257 244 205 200 210 221 237 256 270 275 280 278 258 215 193 171 160 146 153 150 135 125 128 118 124 127 329 285
266 208 250 260 265 269 271 276 266 284 283 278 278 277 301 283 289 282 267 261 272 256 235 208 205 208 216 226 247 259 263 271 274 266 223 203 183 173 177 162 166 164 155 152 137 207 273 187 232
240 255 259 262 264 265 261 257 277 284 299 287 289 283 271 297 292 286 272 266 277 259 228 216 209 208 213 220 234 246 254 262 266 264 242 204 190 184 190 182 178 194 202 221 233 253 226 211 260
247 248 255 267 278 287 283 298 277 280 279 297 290 270 249 265 289 282 281 267 268 267 231 224 218 214 215 224 235 239 245 253 258 257 244 216 194 192 196 193 192 202 214 233 244 238 215 234 246
255 258 264 265 273 276 284 269 273 277 272 265 288 279 232 230 280 289 265 282 259 269 248 230 229 222 222 227 238 239 243 246 249 251 242 223 204 197 201 200 202 210 218 232 238 230 226 235 243
244 254 259 263 275 291 290 293 262 279 292 289 289 282 271 244 272 261 256 229 298 257 258 243 233 229 226 231 237 239 241 246 246 243 240 227 218 206 202 204 206 214 220 227 230 229 233 238 240
250 253 258 270 304 294 284 289 280 290 290 285 286 281 276 281 281 276 263 238 219 253 258 252 239 236 234 232 236 239 241 244 246 246 242 236 224 215 209 209 212 218 223 225 227 228 232 242 242
259 260 274 275 281 280 279 262 280 288 284 278 279 269 256 256 261 270 271 269 247 233 229 289 259 243 239 238 235 238 241 243 245 245 245 239 231 218 213 211 215 220 226 226 226 226 230 240 241
265 259 267 279 281 275 273 280 282 285 289 286 284 280 277 282 292 289 279 270 261 247 221 257 287 264 245 240 241 237 239 243 244 240 243 239 233 221 219 216 217 220 222 222 222 222 229 242 254
251 274 274 278 275 282 289 287 290 294 298 292 298 297 297 303 314 302 291 277 261 251 234 205 243 271 259 246 243 241 239 240 244 240 240 237 231 221 222 220 222 222 219 221 219 218 226 232 252
260 271 288 289 286 285 289 288 297 328 293 277 289 312 319 310 298 293 296 291 278 258 251 236 217 245 256 248 248 243 242 240 242 239 238 236 232 221 223 220 222 219 218 223 215 222 217 225 233
285 294 300 298 284 254 275 308 316 339 305 315 315 309 304 300 302 301 296 295 287 282 260 245 233 230 248 252 241 250 242 244 242 243 238 234 231 222 222 222 220 221 218 220 220 221 230 231 235
290 291 286 264 262 279 290 290 295 276 301 302 309 308 308 297 270 263 266 261 257 291 282 257 234 229 235 249 252 239 242 240 243 244 242 233 230 223 220 222 220 219 218 221 219 218 226 233 243
267 255 266 247 295 285 283 289 300 302 301 303 292 264 253 252 255 264 272 268 259 260 259 267 252 225 234 243 249 249 241 238 238 241 243 236 229 227 222 222 220 217 220 219 221 223 226 231 245
312 262 281 280 283 283 285 290 304 311 298 260 252 248 252 257 275 301 293 285 278 273 258 253 250 243 224 238 245 248 242 237 237 236 239 238 230 229 224 222 221 219 218 218 221 224 230 232 241
269 286 285 284 291 288 291 298 312 288 247 247 247 253 267 268 285 299 303 289 277 266 270 274 270 247 244 224 237 242 241 238 233 236 235 238 232 228 227 223 220 222 223 221 223 228 234 236 244
276 279 282 287 286 295 296 304 305 237 237 252 259 266 277 285 294 303 301 289 284 276 256 263 270 271 265 246 227 238 240 240 237 234 232 235 231 226 226 226 225 222 220 222 223 231 237 244 249
271 275 285 287 296 299 300 295 166 164 329 289 278 279 299 308 310 310 306 297 289 278 268 262 258 263 264 246 238 232 236 240 237 229 233 229 232 226 224 227 229 226 223 226 230 234 239 247 253
268 278 277 288 297 292 306 281 289 267 314 316 294 306 306 310 312 315 314 313 306 292 275 267 261 255 257 255 239 226 233 237 238 227 230 231 229 227 222 224 228 227 224 227 233 237 245 249 254
257 273 278 279 280 287 279 260 105 10 346 310 324 320 320 320 326 327 325 322 312 300 285 271 260 253 249 240 245 224 226 228 233 231 227 230 226 229 223 224 227 229 226 227 234 241 248 257 260
277 292 292 267 257 268 276 239 31 13 351 337 337 331 328 333 336 333 334 324 317 311 286 282 270 253 249 244 236 232 222 227 229 228 226 226 224 227 226 225 226 229 232 234 240 245 252 258 263
252 303 302 219 206 239 130 294 61 19 336 349 341 339 339 339 338 338 338 340 333 320 302 288 277 252 239 241 243 241 222 219 226 225 224 227 225 225 226 225 225 228 234 238 242 247 252 260 266
262 289 289 304 309 314 315 119 106 42 346 343 345 343 346 341 343 345 346 344 340 333 317 296 294 273 249 245 244 247 242 221 227 232 221 225 225 223 226 227 228 231 236 238 242 242 247 252 259
229 246 277 289 285 268 248 108 159 311 338 348 346 346 350 347 351 351 349 348 347 335 323 305 285 280 274 258 244 241 238 230 228 227 219 223 230 222 221 226 230 234 236 234 228 240 253 252 260
215 275 279 239 278 298 162 146 281 328 344 348 343 350 355 352 354 354 356 352 353 347 341 327 295 274 261 266 236 234 235 239 232 231 223 227 214 213 218 221 228 235 224 223 228 241 238 249 259
216 219 238 278 272 279 299 83 337 346 342 341 344 347 354 354 356 358 357 358 357 353 350 347 305 261 238 250 256 234 238 233 228 225 230 228 201 205 214 217 221 223 224 222 228 239 245 256 261
227 213 274 282 289 318 281 245 316 338 339 340 344 344 351 356 356 360 359 1 4 4 7 15 17 58 81 205 240 232 233 220 223 226 198 220 200 210 214 219 219 212 199 216 232 247 262 260 256
Height
3149 3150 3151 3152 3158 3153 3148 3144 3143 3145 3147 3146 3146 3149 3150 3151 3151 3153 3150 3148 3150 3148 3152 3153 3155 3156 3157 3157 3156 3156 3155 3155 3155 3155 3156 3157 3158 3158 3158 3159 3160 3161 3162 3162 3163 3164 3165 3165 3166
3148 3149 3150 3152 3156 3151 3145 3144 3143 3143 3144 3144 3147 3149 3151 3152 3148 3147 3144 3144 3148 3145 3150 3150 3152 3154 3155 3156 3156 3155 3155 3154 3154 3154 3155 3156 3158 3158 3158 3159 3160 3161 3162 3162 3163 3164 3165 3165 3165
3146 3147 3150 3152 3151 3149 3145 3145 3144 3145 3145 3146 3149 3149 3150 3147 3145 3144 3145 3146 3146 3144 3147 3147 3149 3152 3154 3155 3155 3154 3154 3154 3154 3153 3154 3155 3156 3158 3158 3159 3161 3162 3162 3163 3163 3164 3165 3166 3166
3144 3146 3149 3149 3148 3146 3145 3146 3144 3147 3149 3146 3148 3149 3150 3147 3143 3144 3144 3144 3143 3142 3144 3145 3147 3150 3151 3153 3154 3153 3153 3153 3154 3153 3153 3154 3155 3157 3158 3159 3161 3162 3163 3163 3164 3165 3165 3166 3166
3143 3145 3148 3147 3146 3146 3144 3145 3145 3146 3147 3148 3146 3148 3150 3143 3141 3143 3142 3142 3142 3140 3143 3144 3145 3147 3149 3151 3152 3152 3152 3152 3152 3152 3152 3153 3155 3156 3158 3159 3161 3162 3163 3163 3163 3164 3165 3165 3166
3142 3146 3146 3144 3142 3142 3143 3143 3141 3142 3145 3147 3146 3146 3149 3144 3140 3141 3139 3140 3140 3139 3140 3141 3142 3144 3146 3147 3149 3150 3150 3150 3151 3151 3151 3152 3153 3155 3156 3158 3159 3161 3161 3162 3162 3163 3164 3164 3165
3140 3144 3144 3143 3142 3140 3139 3141 3141 3141 3143 3145 3142 3143 3146 3145 3137 3137 3139 3137 3139 3137 3139 3140 3140 3142 3143 3145 3146 3147 3148 3148 3149 3149 3150 3151 3152 3153 3155 3156 3157 3159 3160 3161 3161 3162 3162 3163 3164
3140 3142 3141 3141 3141 3140 3140 3139 3138 3139 3140 3139 3139 3141 3142 3140 3134 3135 3138 3137 3136 3136 3136 3138 3139 3140 3141 3142 3143 3145 3145 3146 3146 3147 3147 3148 3149 3151 3153 3154 3156 3157 3159 3159 3160 3160 3161 3162 3163
3136 3138 3138 3138 3138 3135 3134 3133 3135 3136 3137 3137 3137 3137 3137 3133 3131 3133 3134 3136 3134 3133 3133 3135 3137 3138 3138 3139 3140 3141 3142 3143 3144 3144 3145 3145 3146 3148 3150 3152 3154 3155 3156 3157 3158 3159 3159 3161 3162
3135 3135 3135 3136 3135 3132 3132 3131 3131 3131 3132 3132 3133 3134 3133 3131 3129 3128 3129 3130 3130 3132 3130 3130 3132 3134 3135 3135 3137 3138 3139 3140 3140 3141 3142 3143 3144 3146 3148 3150 3151 3153 3154 3155 3156 3157 3158 3159 3160
3132 3131 3132 3131 3131 3128 3128 3128 3127 3126 3126 3128 3127 3125 3125 3124 3123 3124 3125 3125 3126 3127 3130 3128 3126 3128 3131 3132 3133 3133 3135 3136 3137 3138 3139 3140 3142 3144 3145 3147 3148 3151 3152 3153 3155 3156 3156 3157 3158
3129 3127 3126 3127 3126 3123 3123 3122 3120 3120 3120 3121 3120 3119 3118 3117 3117 3118 3119 3119 3120 3122 3124 3128 3124 3121 3123 3126 3127 3130 3131 3132 3133 3134 3136 3136 3139 3141 3143 3144 3146 3148 3149 3151 3152 3154 3155 3155 3156
3121 3122 3121 3121 3118 3118 3117 3117 3115 3115 3115 3115 3115 3114 3114 3114 3114 3113 3113 3113 3113 3113 3115 3118 3119 3116 3116 3120 3122 3123 3126 3127 3129 3131 3132 3132 3134 3137 3139 3142 3143 3145 3147 3148 3150 3152 3153 3154 3154
3117 3115 3114 3113 3113 3112 3113 3114 3112 3111 3112 3111 3111 3111 3112 3113 3113 3112 3111 3109 3106 3106 3108 3112 3111 3110 3110 3112 3116 3117 3119 3123 3124 3125 3127 3128 3130 3133 3135 3138 3140 3142 3144 3146 3147 3149 3151 3152 3153
3109 3108 3107 3107 3108 3111 3109 3110 3111 3111 3108 3108 3109 3108 3108 3108 3108 3107 3105 3102 3100 3099 3100 3102 3105 3104 3103 3104 3107 3110 3112 3115 3118 3120 3122 3124 3125 3128 3131 3134 3136 3139 3141 3143 3144 3145 3146 3149 3150
3106 3106 3105 3104 3106 3107 3107 3106 3108 3107 3106 3105 3104 3103 3103 3102 3097 3090 3091 3087 3085 3092 3092 3092 3095 3097 3094 3096 3096 3100 3103 3107 3109 3113 3115 3119 3119 3122 3125 3129 3131 3135 3137 3139 3140 3142 3144 3146 3147
3104 3104 3104 3104 3104 3102 3102 3103 3105 3104 3101 3101 3099 3092 3088 3087 3086 3087 3086 3084 3082 3081 3077 3082 3083 3086 3087 3085 3089 3090 3095 3097 3100 3105 3107 3111 3114 3116 3119 3123 3127 3130 3133 3135 3137 3138 3140 3142 3144
3101 3102 3101 3101 3102 3100 3099 3099 3101 3100 3098 3090 3086 3081 3082 3083 3082 3082 3081 3079 3076 3074 3069 3065 3071 3071 3075 3077 3077 3080 3082 3087 3089 3093 3099 3104 3108 3109 3112 3117 3121 3125 3127 3130 3132 3135 3136 3139 3141
3098 3099 3097 3097 3097 3094 3095 3096 3096 3092 3087 3082 3079 3079 3080 3079 3075 3073 3070 3065 3062 3063 3060 3055 3057 3057 3062 3065 3064 3068 3071 3075 3080 3083 3091 3096 3100 3103 3105 3110 3114 3117 3122 3125 3128 3131 3132 3134 3136
3096 3096 3094 3093 3092 3090 3089 3089 3088 3085 3078 3076 3075 3076 3074 3072 3068 3064 3058 3053 3049 3045 3045 3044 3044 3045 3050 3052 3053 3054 3059 3064 3069 3075 3082 3086 3089 3095 3098 3102 3105 3109 3115 3119 3122 3124 3127 3129 3131
3094 3093 3091 3091 3088 3086 3084 3085 3081 3081 3077 3073 3073 3071 3068 3062 3057 3050 3045 3039 3036 3032 3029 3031 3030 3031 3032 3038 3043 3044 3045 3052 3056 3063 3068 3074 3078 3088 3092 3095 3097 3104 3107 3111 3115 3119 3121 3124 3126
3089 3090 3088 3088 3086 3083 3085 3079 3082 3077 3071 3069 3069 3067 3063 3057 3048 3039 3031 3025 3021 3018 3015 3015 3017 3018 3019 3023 3026 3033 3034 3036 3044 3051 3055 3060 3068 3077 3083 3087 3091 3097 3101 3103 3106 3112 3115 3118 3120
3085 3085 3085 3084 3082 3080 3077 3077 3076 3071 3067 3065 3064 3061 3057 3048 3038 3030 3023 3016 3013 3008 3005 3005 3005 3007 3005 3004 3011 3014 3020 3023 3030 3039 3043 3045 3059 3063 3074 3079 3084 3087 3093 3096 3098 3104 3108 3111 3113
3082 3081 3079 3078 3078 3076 3067 3071 3074 3068 3067 3063 3059 3056 3051 3042 3033 3027 3018 3011 3004 3001 2997 2995 2994 2996 2996 2996 2995 2997 3003 3012 3016 3023 3030 3034 3043 3051 3062 3071 3075 3080 3082 3088 3093 3097 3101 3104 3106
3081 3080 3075 3068 3074 3071 3066 3069 3074 3070 3065 3062 3056 3052 3046 3038 3031 3022 3012 3002 2994 2989 2985 2983 2982 2984 2983 2984 2983 2988 2990 2994 3004 3007 3014 3021 3029 3038 3050 3060 3065 3070 3073 3078 3084 3088 3091 3095 3098
3079 3080 3079 3074 3069 3067 3063 3064 3072 3070 3065 3059 3055 3050 3043 3037 3030 3019 3007 2998 2988 2980 2975 2970 2970 2972 2972 2971 2972 2978 2978 2979 2984 2976 2995 3003 3015 3027 3038 3050 3057 3061 3063 3068 3074 3077 3082 3083 3088
3077 3078 3078 3077 3072 3066 3063 3068 3068 3065 3062 3058 3053 3047 3041 3035 3028 3019 3009 2999 2988 2979 2971 2965 2965 2964 2960 2960 2961 2966 2966 2966 2964 2977 2986 2992 3001 3014 3026 3039 3048 3052 3056 3061 3067 3069 3072 3072 3079
3073 3075 3076 3075 3070 3062 3057 3063 3063 3061 3057 3053 3050 3045 3040 3035 3029 3021 3010 3002 2990 2979 2969 2963 2960 2959 2955 2956 2952 2957 2958 2962 2966 2965 2962 2977 2980 2992 3012 3027 3034 3038 3048 3052 3055 3063 3066 3063 3069
3070 3070 3073 3073 3071 3065 3057 3061 3062 3059 3055 3052 3049 3044 3038 3034 3028 3020 3011 3003 2993 2984 2973 2961 2956 2955 2952 2953 2950 2952 2955 2961 2969 2968 2972 2960 2953 2974 3001 3011 3018 3028 3032 3017 3047 3053 3057 3053 3059
3067 3068 3070 3071 3067 3067 3065 3062 3060 3059 3055 3052 3048 3044 3039 3033 3028 3021 3013 3005 2995 2987 2978 2969 2964 2955 2950 2948 2949 2950 2948 2959 2966 2976 2959 2971 2962 2978 2993 3003 3009 3014 3012 3034 3038 3044 3047 3045 3050